Location: Most
(50.5133°N, 13.6207°E)
Time: 02:23:10
(UTC+01:00)

Oscar 11 - Pass Details

Date: 08 December 2021
Orbit: 611 x 625 km, 97.6° (Epoch: 17 January)

Event Time Altitude Azimuth Distance (km) Brightness Sun altitude
Rises 18:02:00 0° 218° (SW) 2,901 11.4 -18.1°
Reaches altitude 10° 18:05:26 10° 248° (WSW) 2,002 10.9 -18.6°
Maximum altitude 18:07:20 13° 274° (W) 1,836 10.5 -18.9°
Drops below altitude 10° 18:09:15 10° 300° (WNW) 2,009 10.3 -19.2°
Sets 18:12:44 0° 329° (NNW) 2,922 10.8 -19.7°
